Time,TemperatureF,DewpointF,PressureIn,WindDirection,WindDirectionDegrees,WindSpeedMPH,WindSpeedGustMPH,Humidity,HourlyPrecipIn,Conditions,Clouds,dailyrainin,SoftwareType,DateUTC
2013-07-11 00:01:00,87.0,67.0,29.91,WNW,297,0.0,0.0,52,0.00,,,0.00,,2013-07-11 05:01:00,
2013-07-11 00:12:00,87.0,67.0,29.91,WNW,297,0.0,0.0,52,0.00,,,0.00,,2013-07-11 05:12:00,
2013-07-11 00:22:00,87.0,67.0,29.91,WNW,288,0.0,0.0,52,0.00,,,0.00,,2013-07-11 05:22:00,
2013-07-11 00:32:00,87.0,68.0,29.91,West,259,0.0,0.0,53,0.00,,,0.00,,2013-07-11 05:32:00,
2013-07-11 00:43:00,87.0,68.0,29.91,West,259,0.0,0.0,53,0.00,,,0.00,,2013-07-11 05:43:00,
2013-07-11 00:52:00,86.0,67.0,29.92,WSW,256,0.0,0.0,54,0.00,,,0.00,,2013-07-11 05:52:00,
2013-07-11 01:01:00,86.0,68.0,29.92,WSW,256,0.0,0.0,55,0.00,,,0.00,,2013-07-11 06:01:00,
2013-07-11 01:11:00,86.0,68.0,29.92,WSW,256,0.0,0.0,55,0.00,,,0.00,,2013-07-11 06:11:00,
2013-07-11 01:22:00,85.0,68.0,29.92,WSW,256,0.0,0.0,57,0.00,,,0.00,,2013-07-11 06:22:00,
2013-07-11 01:32:00,85.0,69.0,29.92,WNW,291,0.0,0.0,58,0.00,,,0.00,,2013-07-11 06:32:00,
2013-07-11 01:43:00,85.0,69.0,29.92,WNW,291,0.0,0.0,58,0.00,,,0.00,,2013-07-11 06:43:00,
2013-07-11 01:53:00,85.0,69.0,29.92,North,6,0.0,4.0,58,0.00,,,0.00,,2013-07-11 06:53:00,
2013-07-11 02:01:00,85.0,68.0,29.93,North,352,0.0,3.0,57,0.00,,,0.00,,2013-07-11 07:01:00,
2013-07-11 02:12:00,85.0,68.0,29.93,North,352,0.0,3.0,57,0.00,,,0.00,,2013-07-11 07:12:00,
2013-07-11 02:22:00,87.0,68.0,29.93,NE,44,0.0,6.0,54,0.00,,,0.00,,2013-07-11 07:22:00,
2013-07-11 02:32:00,87.0,68.0,29.93,North,1,0.0,5.0,54,0.00,,,0.00,,2013-07-11 07:32:00,
2013-07-11 02:45:00,87.0,68.0,29.93,North,1,0.0,5.0,54,0.00,,,0.00,,2013-07-11 07:45:00,
2013-07-11 02:53:00,86.0,68.0,29.93,WSW,246,0.0,4.0,55,0.00,,,0.00,,2013-07-11 07:53:00,
2013-07-11 03:02:00,85.0,68.0,29.93,WSW,252,0.0,1.0,57,0.00,,,0.00,,2013-07-11 08:02:00,
2013-07-11 03:11:00,85.0,68.0,29.93,WSW,252,0.0,1.0,57,0.00,,,0.00,,2013-07-11 08:11:00,
2013-07-11 03:22:00,85.0,68.0,29.93,North,9,1.0,6.0,57,0.00,,,0.00,,2013-07-11 08:22:00,
2013-07-11 03:34:00,86.0,69.0,29.92,North,351,3.0,6.0,58,0.00,,,0.00,,2013-07-11 08:34:00,
2013-07-11 03:43:00,86.0,69.0,29.92,North,351,3.0,6.0,58,0.00,,,0.00,,2013-07-11 08:43:00,
2013-07-11 03:53:00,86.0,70.0,29.93,NW,312,3.0,7.0,60,0.00,,,0.00,,2013-07-11 08:53:00,
2013-07-11 04:02:00,85.0,70.0,29.93,NNW,328,1.0,6.0,61,0.00,,,0.00,,2013-07-11 09:02:00,
2013-07-11 04:12:00,85.0,70.0,29.93,NNW,328,1.0,6.0,61,0.00,,,0.00,,2013-07-11 09:12:00,
2013-07-11 04:21:00,85.0,71.0,29.93,East,98,2.0,6.0,63,0.00,,,0.00,,2013-07-11 09:21:00,
2013-07-11 04:33:00,85.0,71.0,29.93,North,11,2.0,7.0,64,0.00,,,0.00,,2013-07-11 09:33:00,
2013-07-11 04:43:00,85.0,71.0,29.93,North,11,2.0,7.0,64,0.00,,,0.00,,2013-07-11 09:43:00,
2013-07-11 04:53:00,84.0,71.0,29.93,NNW,341,4.0,8.0,65,0.00,,,0.00,,2013-07-11 09:53:00,
2013-07-11 05:01:00,84.0,71.0,29.92,NNE,18,1.0,4.0,66,0.00,,,0.00,,2013-07-11 10:01:00,
2013-07-11 05:12:00,84.0,71.0,29.92,NNE,18,1.0,4.0,66,0.00,,,0.00,,2013-07-11 10:12:00,
2013-07-11 05:22:00,84.0,72.0,29.92,NW,317,1.0,7.0,67,0.00,,,0.00,,2013-07-11 10:22:00,
2013-07-11 05:33:00,83.0,71.0,29.92,NW,307,2.0,9.0,68,0.00,,,0.00,,2013-07-11 10:33:00,
2013-07-11 05:42:00,83.0,71.0,29.92,NW,307,2.0,9.0,68,0.00,,,0.00,,2013-07-11 10:42:00,
2013-07-11 05:52:00,83.0,71.0,29.92,NNW,328,1.0,9.0,68,0.00,,,0.00,,2013-07-11 10:52:00,
2013-07-11 06:02:00,83.0,72.0,29.91,NNE,13,2.0,8.0,69,0.00,,,0.00,,2013-07-11 11:02:00,
2013-07-11 06:12:00,83.0,72.0,29.91,NNE,13,2.0,8.0,69,0.00,,,0.00,,2013-07-11 11:12:00,
2013-07-11 06:22:00,83.0,72.0,29.92,NW,325,0.0,7.0,69,0.00,,,0.00,,2013-07-11 11:22:00,
2013-07-11 06:32:00,83.0,72.0,29.92,WNW,292,1.0,5.0,70,0.00,,,0.00,,2013-07-11 11:32:00,
2013-07-11 06:43:00,83.0,72.0,29.92,WNW,292,1.0,5.0,70,0.00,,,0.00,,2013-07-11 11:43:00,
2013-07-11 06:53:00,82.0,72.0,29.92,North,8,1.0,6.0,71,0.00,,,0.00,,2013-07-11 11:53:00,
2013-07-11 07:01:00,82.0,72.0,29.93,WNW,299,0.0,4.0,71,0.00,,,0.00,,2013-07-11 12:01:00,
2013-07-11 07:12:00,82.0,72.0,29.93,WNW,299,0.0,4.0,71,0.00,,,0.00,,2013-07-11 12:12:00,
2013-07-11 07:22:00,82.0,72.0,29.93,NE,39,0.0,5.0,71,0.00,,,0.00,,2013-07-11 12:22:00,
2013-07-11 07:33:00,82.0,72.0,29.93,NE,37,0.0,6.0,71,0.00,,,0.00,,2013-07-11 12:33:00,
2013-07-11 07:43:00,82.0,72.0,29.93,NE,37,0.0,6.0,71,0.00,,,0.00,,2013-07-11 12:43:00,
2013-07-11 07:57:00,83.0,72.0,29.93,WNW,288,2.0,5.0,70,0.00,,,0.00,,2013-07-11 12:57:00,
2013-07-11 08:13:00,83.0,72.0,29.93,NNW,332,1.0,5.0,69,0.00,,,0.00,,2013-07-11 13:13:00,
2013-07-11 08:23:00,84.0,73.0,29.94,ENE,65,0.0,5.0,69,0.00,,,0.00,,2013-07-11 13:23:00,
2013-07-11 08:33:00,84.0,72.0,29.94,NNW,340,1.0,6.0,67,0.00,,,0.00,,2013-07-11 13:33:00,
2013-07-11 08:45:00,84.0,72.0,29.94,NNW,340,1.0,6.0,67,0.00,,,0.00,,2013-07-11 13:45:00,
2013-07-11 08:54:00,86.0,73.0,29.94,North,358,1.0,6.0,66,0.00,,,0.00,,2013-07-11 13:54:00,
2013-07-11 09:04:00,86.0,72.0,29.94,North,353,1.0,5.0,63,0.00,,,0.00,,2013-07-11 14:04:00,
2013-07-11 09:23:00,86.0,72.0,29.94,NE,34,2.0,6.0,64,0.00,,,0.00,,2013-07-11 14:23:00,
2013-07-11 09:35:00,87.0,73.0,29.94,NE,53,0.0,4.0,63,0.00,,,0.00,,2013-07-11 14:35:00,
2013-07-11 09:45:00,87.0,73.0,29.94,NE,53,0.0,4.0,63,0.00,,,0.00,,2013-07-11 14:45:00,
2013-07-11 09:55:00,87.0,72.0,29.94,East,85,1.0,5.0,62,0.00,,,0.00,,2013-07-11 14:55:00,
2013-07-11 10:04:00,88.0,73.0,29.94,ENE,71,3.0,6.0,61,0.00,,,0.00,,2013-07-11 15:04:00,
2013-07-11 10:13:00,88.0,73.0,29.94,ENE,71,3.0,6.0,61,0.00,,,0.00,,2013-07-11 15:13:00,
2013-07-11 10:24:00,89.0,73.0,29.94,East,93,2.0,7.0,59,0.00,,,0.00,,2013-07-11 15:24:00,
2013-07-11 10:35:00,90.0,73.0,29.94,ESE,102,0.0,6.0,58,0.00,,,0.00,,2013-07-11 15:35:00,
2013-07-11 10:45:00,90.0,73.0,29.94,ESE,102,0.0,6.0,58,0.00,,,0.00,,2013-07-11 15:45:00,
2013-07-11 11:04:00,91.0,73.0,29.94,North,4,2.0,5.0,55,0.00,,,0.00,,2013-07-11 16:04:00,
2013-07-11 11:13:00,91.0,73.0,29.94,North,4,2.0,5.0,55,0.00,,,0.00,,2013-07-11 16:13:00,
2013-07-11 11:23:00,93.0,73.0,29.94,North,6,0.0,4.0,53,0.00,,,0.00,,2013-07-11 16:23:00,
2013-07-11 11:34:00,94.0,72.0,29.94,NNE,22,1.0,4.0,50,0.00,,,0.00,,2013-07-11 16:34:00,
2013-07-11 11:56:00,95.0,73.0,29.94,North,353,0.0,6.0,50,0.00,,,0.00,,2013-07-11 16:56:00,
2013-07-11 12:36:00,95.0,72.0,29.93,SE,136,0.0,2.0,48,0.00,,,0.00,,2013-07-11 17:36:00,
2013-07-11 12:45:00,95.0,72.0,29.93,SE,136,0.0,2.0,48,0.00,,,0.00,,2013-07-11 17:45:00,
2013-07-11 12:55:00,96.0,73.0,29.93,East,81,0.0,1.0,48,0.00,,,0.00,,2013-07-11 17:55:00,
2013-07-11 13:03:00,97.0,73.0,29.92,SE,124,0.0,1.0,47,0.00,,,0.00,,2013-07-11 18:03:00,
2013-07-11 13:14:00,97.0,73.0,29.92,SE,124,0.0,1.0,47,0.00,,,0.00,,2013-07-11 18:14:00,
2013-07-11 13:23:00,100.0,71.0,29.92,SSW,200,0.0,2.0,40,0.00,,,0.00,,2013-07-11 18:23:00,
2013-07-11 13:35:00,100.0,71.0,29.92,SSW,200,0.0,2.0,40,0.00,,,0.00,,2013-07-11 18:35:00,
2013-07-11 13:45:00,101.0,71.0,29.91,WSW,257,0.0,3.0,39,0.00,,,0.00,,2013-07-11 18:45:00,
2013-07-11 13:56:00,102.0,71.0,29.91,WSW,240,1.0,3.0,37,0.00,,,0.00,,2013-07-11 18:56:00,
2013-07-11 14:03:00,102.0,71.0,29.90,South,181,0.0,6.0,37,0.00,,,0.00,,2013-07-11 19:03:00,
2013-07-11 14:13:00,102.0,71.0,29.90,South,181,0.0,6.0,37,0.00,,,0.00,,2013-07-11 19:13:00,
2013-07-11 14:23:00,100.0,71.0,29.90,SE,134,0.0,4.0,40,0.00,,,0.00,,2013-07-11 19:23:00,
2013-07-11 14:36:00,98.0,68.0,29.89,SW,235,0.0,2.0,38,0.00,,,0.00,,2013-07-11 19:36:00,
2013-07-11 14:44:00,98.0,68.0,29.89,SW,235,0.0,2.0,38,0.00,,,0.00,,2013-07-11 19:44:00,
2013-07-11 14:54:00,97.0,73.0,29.89,SSW,198,0.0,0.0,46,0.02,,,0.02,,2013-07-11 19:54:00,
2013-07-11 15:36:00,85.0,76.0,29.88,NW,318,0.0,1.0,75,0.16,,,0.16,,2013-07-11 20:36:00,
2013-07-11 15:46:00,85.0,76.0,29.88,NW,318,0.0,1.0,75,0.16,,,0.16,,2013-07-11 20:46:00,
2013-07-11 16:04:00,88.0,78.0,29.87,NNE,27,0.0,1.0,72,0.12,,,0.16,,2013-07-11 21:04:00,
2013-07-11 16:23:00,94.0,73.0,29.87,North,8,0.0,3.0,51,0.00,,,0.16,,2013-07-11 21:23:00,
2013-07-11 17:54:00,86.0,71.0,29.87,West,277,6.0,13.0,62,0.00,,,0.16,,2013-07-11 22:54:00,
2013-07-11 18:04:00,86.0,71.0,29.87,West,277,6.0,13.0,62,0.00,,,0.16,,2013-07-11 23:04:00,
2013-07-11 18:13:00,82.0,72.0,29.87,WSW,253,2.0,11.0,71,0.01,,,0.17,,2013-07-11 23:13:00,
2013-07-11 18:23:00,81.0,75.0,29.88,SE,127,0.0,1.0,82,0.05,,,0.21,,2013-07-11 23:23:00,
2013-07-11 18:34:00,81.0,75.0,29.88,SE,127,0.0,1.0,82,0.05,,,0.21,,2013-07-11 23:34:00,
2013-07-11 18:46:00,79.0,74.0,29.88,West,260,0.0,3.0,84,0.06,,,0.22,,2013-07-11 23:46:00,
2013-07-11 18:54:00,79.0,75.0,29.87,West,259,0.0,1.0,88,0.06,,,0.22,,2013-07-11 23:54:00,
2013-07-11 19:03:00,79.0,75.0,29.87,West,259,0.0,1.0,88,0.06,,,0.22,,2013-07-12 00:03:00,
2013-07-11 19:13:00,79.0,75.0,29.86,West,260,0.0,1.0,89,0.05,,,0.22,,2013-07-12 00:13:00,
2013-07-11 19:23:00,80.0,77.0,29.86,ESE,107,0.0,1.0,90,0.01,,,0.22,,2013-07-12 00:23:00,
2013-07-11 19:34:00,80.0,77.0,29.86,ESE,107,0.0,1.0,90,0.01,,,0.22,,2013-07-12 00:34:00,
2013-07-11 19:43:00,80.0,76.0,29.87,SW,229,0.0,0.0,88,0.00,,,0.22,,2013-07-12 00:43:00,
2013-07-11 19:54:00,80.0,75.0,29.89,WSW,245,0.0,0.0,86,0.00,,,0.22,,2013-07-12 00:54:00,
2013-07-11 20:02:00,80.0,75.0,29.89,WSW,245,0.0,0.0,86,0.00,,,0.22,,2013-07-12 01:02:00,
2013-07-11 20:12:00,80.0,76.0,29.89,WSW,239,0.0,0.0,87,0.00,,,0.22,,2013-07-12 01:12:00,
2013-07-11 20:25:00,80.0,76.0,29.89,WSW,239,0.0,0.0,87,0.00,,,0.22,,2013-07-12 01:25:00,
2013-07-11 20:45:00,80.0,76.0,29.89,West,262,0.0,0.0,88,0.00,,,0.22,,2013-07-12 01:45:00,
2013-07-11 20:54:00,79.0,74.0,29.90,SSE,166,0.0,1.0,85,0.00,,,0.22,,2013-07-12 01:54:00,
2013-07-11 21:05:00,79.0,74.0,29.90,SSE,166,0.0,1.0,85,0.00,,,0.22,,2013-07-12 02:05:00,
2013-07-11 21:15:00,79.0,74.0,29.89,West,263,0.0,1.0,84,0.00,,,0.22,,2013-07-12 02:15:00,
2013-07-11 21:24:00,79.0,73.0,29.89,West,263,0.0,0.0,83,0.00,,,0.22,,2013-07-12 02:24:00,
2013-07-11 21:35:00,79.0,73.0,29.89,West,263,0.0,0.0,83,0.00,,,0.22,,2013-07-12 02:35:00,
2013-07-11 21:44:00,78.0,72.0,29.89,West,263,0.0,0.0,83,0.00,,,0.22,,2013-07-12 02:44:00,
2013-07-11 21:52:00,78.0,73.0,29.88,West,263,0.0,0.0,86,0.00,,,0.22,,2013-07-12 02:52:00,
2013-07-11 22:02:00,78.0,73.0,29.88,West,263,0.0,0.0,86,0.00,,,0.22,,2013-07-12 03:02:00,
2013-07-11 22:14:00,77.0,72.0,29.88,West,262,0.0,0.0,86,0.00,,,0.22,,2013-07-12 03:14:00,
2013-07-11 22:23:00,78.0,73.0,29.88,WSW,250,0.0,1.0,86,0.00,,,0.22,,2013-07-12 03:23:00,
2013-07-11 22:35:00,78.0,73.0,29.88,WSW,250,0.0,1.0,86,0.00,,,0.22,,2013-07-12 03:35:00,
2013-07-11 22:43:00,78.0,73.0,29.89,WSW,250,0.0,1.0,85,0.00,,,0.22,,2013-07-12 03:43:00,
2013-07-11 23:01:00,77.0,72.0,29.89,WSW,250,0.0,0.0,85,0.00,,,0.22,,2013-07-12 04:01:00,
2013-07-11 23:11:00,77.0,72.0,29.88,WSW,250,0.0,0.0,85,0.00,,,0.22,,2013-07-12 04:11:00,
2013-07-11 23:21:00,77.0,72.0,29.89,WSW,250,0.0,0.0,86,0.00,,,0.22,,2013-07-12 04:21:00,
2013-07-11 23:32:00,77.0,72.0,29.89,WSW,250,0.0,0.0,86,0.00,,,0.22,,2013-07-12 04:32:00,
2013-07-11 23:43:00,77.0,72.0,29.90,WSW,256,0.0,0.0,86,0.00,,,0.22,,2013-07-12 04:43:00,
2013-07-11 23:53:00,77.0,72.0,29.90,WSW,256,0.0,0.0,86,0.00,,,0.22,,2013-07-12 04:53:00,